sat.trackr.live / text

‹ back to catalog

STARLINK-37010

NORAD 68289 · 2026-055AD

PAYLOAD ACTIVE UNKNOWN

§ Identity

Operator
Country
US
Launch date
2026-03-19
Launch site
AFETR
Launch vehicle
Mass (kg)
RCS (m²)

Purposes: comms

External: N2YO · Heavens-Above · Gunter

§ Orbital elements

Epoch: 2026-09-20T03:17:43.666080Z

Period
93.85 min
Inclination
53.1550°
Eccentricity
0.0001226
Mean motion
15.34406556 rev/d
Perigee alt
461.8 km
Apogee alt
463.5 km
Semi-major
6,840.8 km
B*
4.5719e-4
RAAN
131.6673°
Arg perigee
89.7128°
Mean anomaly
270.4015°
Rev number
2,976

§ Raw data

STARLINK-370101 68289U 26055AD  26263.13731095  .00015105  00000+0  45719-3 0  99992 68289  53.1550 131.6673 0001226  89.7128 270.4015 15.34406556 29769

JSON: /api/v1/satellites/68289 · /tle

For live sub-satellite position, see the globe view (requires WebGL).

§ Visibility from observer

Set your observer location to see the next 7 days of passes ≥ 10°. The values pass through the URL so the page stays shareable.

No JS? Fill the form by hand. The geolocation button needs JavaScript.